Weather History for Provo, UT

Change the Weather History Date:

Thursday, November 29, 2012

  Actual Average Record
Temperature  
Mean Temperature 46 °F -  
Max Temperature 57 °F 40 °F 62 °F (1999)
Min Temperature 35 °F 25 °F 7 °F (1992)
Degree Days  
Heating Degree Days 19    
Moisture  
Dew Point 30 °F    
Average Humidity 53    
Maximum Humidity 75    
Minimum Humidity 38    
Precipitation  
Precipitation 0.00 in - - ()
Sea Level Pressure  
Sea Level Pressure 30.10 in    
Wind  
Wind Speed 3 mph (ESE)    
Max Wind Speed 12 mph    
Max Gust Speed -    
Visibility 12 miles    
Events      
Averages and records for this station are not official NWS values.
T = Trace of Precipitation, MM = Missing Value Source: NWS Daily Summary

Daily Weather History Graph

Daily Weather History Graph

Search for Another Location

Airport:

Trip Planner

Search our weather history database for the weather conditions in past years. The results will help you decide how hot, cold, wet, or windy it might be!

Date:

Astronomy

Nov. 29, 2012 Rise Set
Actual Time 7:28 AM MST 5:01 PM MST
Civil Twilight 6:58 AM MST 5:32 PM MST
Nautical Twilight 6:24 AM MST 6:05 PM MST
Astronomical Twilight 5:52 AM MST 6:38 PM MST
Moon 6:07 PM MST (11/29) 8:18 AM MST (11/29)
Length of Visible Light 10h 33m
Length of Day
9h 33m
Full, 99% of the Moon is Illuminated
Nov 29
Full
Dec 6
Last Quarter
Dec 13
New
Dec 19
First Quarter
Dec 28
Full

Hourly Weather History & Observations

Time (MST) Temp. Windchill Dew Point Humidity Pressure Visibility Wind Dir Wind Speed Gust Speed Precip Events Conditions
12:15 AM 46.4 °F 44.3 °F 26.6 °F 46% 30.09 in 10.0 mi NNE 4.6 mph - N/A   Partly Cloudy
12:35 AM 46.4 °F - 24.8 °F 43% 30.10 in 10.0 mi Calm Calm - N/A   Mostly Cloudy
12:55 AM 46.4 °F 45.2 °F 26.6 °F 46% 30.10 in 10.0 mi WSW 3.5 mph - N/A   Overcast
1:15 AM 51.8 °F - 28.4 °F 41% 30.11 in 10.0 mi Calm Calm - N/A   Overcast
1:35 AM 50.0 °F - 28.4 °F 43% 30.11 in 10.0 mi Calm Calm - N/A   Overcast
1:55 AM 51.8 °F - 28.4 °F 41% 30.09 in 10.0 mi Calm Calm - N/A   Mostly Cloudy
2:15 AM 48.2 °F - 28.4 °F 46% 30.10 in 10.0 mi Calm Calm - N/A   Clear
2:35 AM 46.4 °F 44.3 °F 28.4 °F 50% 30.11 in 10.0 mi NE 4.6 mph - N/A   Scattered Clouds
2:55 AM 46.4 °F 45.2 °F 28.4 °F 50% 30.12 in 10.0 mi North 3.5 mph - N/A   Overcast
3:15 AM 46.4 °F 44.3 °F 28.4 °F 50% 30.11 in 10.0 mi SSW 4.6 mph - N/A   Mostly Cloudy
3:35 AM 44.6 °F - 28.4 °F 53% 30.11 in 10.0 mi Calm Calm - N/A   Partly Cloudy
3:55 AM 46.4 °F - 30.2 °F 53% 30.11 in 10.0 mi Calm Calm - N/A   Clear
4:15 AM 50.0 °F - 30.2 °F 47% 30.10 in 10.0 mi Calm Calm - N/A   Clear
4:35 AM 48.2 °F - 30.2 °F 50% 30.10 in 10.0 mi Calm Calm - N/A   Clear
4:55 AM 42.8 °F - 26.6 °F 53% 30.10 in 10.0 mi Calm Calm - N/A   Clear
5:15 AM 39.2 °F 35.0 °F 30.2 °F 70% 30.10 in 10.0 mi NNE 5.8 mph - N/A   Clear
5:35 AM 35.6 °F 31.7 °F 28.4 °F 75% 30.10 in 10.0 mi East 4.6 mph - N/A   Clear
5:55 AM 37.4 °F 34.9 °F 28.4 °F 70% 30.11 in 10.0 mi NE 3.5 mph - N/A   Clear
6:15 AM 37.4 °F 32.8 °F 26.6 °F 65% 30.10 in 10.0 mi ENE 5.8 mph - N/A   Clear
6:35 AM 35.6 °F 32.8 °F 26.6 °F 70% 30.10 in 10.0 mi ESE 3.5 mph - N/A   Clear
8:50 AM 41.0 °F 38.0 °F 32.0 °F 70% 30.16 in 15.0 mi Variable 4.6 mph - N/A   Scattered Clouds
10:50 AM 55.4 °F - 33.8 °F 44% 30.16 in 15.0 mi SSE 6.9 mph - N/A   Scattered Clouds
11:47 AM 55.4 °F - 30.2 °F 38% 30.15 in 15.0 mi SE 8.1 mph - N/A   Mostly Cloudy
12:52 PM 57.2 °F - 33.8 °F 41% 30.12 in 15.0 mi Variable 3.5 mph - N/A   Mostly Cloudy
1:50 PM 57.2 °F - 33.8 °F 41% 30.10 in 15.0 mi Calm Calm - N/A   Mostly Cloudy
2:59 PM 57.2 °F - 33.8 °F 41% 30.09 in 15.0 mi ESE 4.6 mph - N/A   Mostly Cloudy
3:47 PM 55.4 °F - 33.8 °F 44% 30.08 in 15.0 mi Variable 3.5 mph - N/A   Mostly Cloudy
4:53 PM 53.6 °F - 33.8 °F 47% 30.07 in 15.0 mi Calm Calm - N/A   Mostly Cloudy
5:50 PM 48.2 °F - 33.8 °F 58% 30.08 in 15.0 mi ESE 4.6 mph - N/A   Mostly Cloudy
6:55 PM 48.2 °F - 35.6 °F 62% 30.09 in 15.0 mi Variable 3.5 mph - N/A   Overcast
7:50 PM 44.6 °F 43.1 °F 35.6 °F 71% 30.08 in 15.0 mi Variable 3.5 mph - N/A   Mostly Cloudy
8:50 PM 46.4 °F 43.5 °F 33.8 °F 62% 30.08 in 15.0 mi ESE 5.8 mph - N/A   Mostly Cloudy
9:15 PM 46.4 °F 45.2 °F 32.0 °F 57% 30.08 in 10.0 mi South 3.5 mph - N/A   Clear
9:35 PM 46.4 °F 42.9 °F 30.2 °F 53% 30.09 in 10.0 mi South 6.9 mph - N/A   Clear
9:55 PM 44.6 °F 40.2 °F 32.0 °F 61% 30.09 in 10.0 mi South 8.1 mph - N/A   Partly Cloudy
10:15 PM 46.4 °F - 32.0 °F 57% 30.09 in 10.0 mi Calm Calm - N/A   Partly Cloudy
10:35 PM 46.4 °F - 30.2 °F 53% 30.09 in 10.0 mi Calm Calm - N/A   Scattered Clouds
10:55 PM 46.4 °F 41.1 °F 30.2 °F 53% 30.09 in 10.0 mi SSE 11.5 mph - N/A   Partly Cloudy
11:15 PM 48.2 °F - 30.2 °F 50% 30.09 in 10.0 mi SSE 11.5 mph - N/A   Scattered Clouds
11:55 PM 48.2 °F - 30.2 °F 50% 30.09 in 10.0 mi SE 10.4 mph - N/A   Overcast